Location: Cary
(35.7910°N, 78.7810°W)
Time: 06:13:11
(UTC-05:00)

Amateur Radio Satellites - All Passes

Search period start: 24 November 2017 05:43
Search period end: 25 November 2017 05:43
Location: Cary, 35.7910°N, 78.7810°W

Satellite Date Start Highest point End Downlink Frequencies (MHz)
Time Altitude Azimuth
XW-2B 24 Nov 05:45:15 05:48:33 27° 97° (E) 05:51:51 145.730 - 145.750
NUDT-PHONESAT 24 Nov 05:46:12 05:48:52 18° 95° (E) 05:51:31 437.300
YUBILEINY 24 Nov 05:47:42 05:56:26 76° 278° (W) 06:05:17 435.215
CUTE-I 24 Nov 05:50:30 05:55:06 29° 96° (E) 05:59:40 437.470
XW-2C 24 Nov 06:10:40 06:14:28 63° 101° (E) 06:18:15 145.795 - 145.815
STRAND 1 24 Nov 06:15:25 06:19:57 32° 70° (ENE) 06:24:30 437.568
SO-50 24 Nov 06:16:44 06:21:25 86° 62° (ENE) 06:26:09 436.795
LilacSat-2 24 Nov 06:16:48 06:20:40 84° 106° (ESE) 06:24:31 437.200
RS-15 24 Nov 06:17:42 06:23:44 16° 263° (W) 06:29:39 29.354- 29.394
XW-2F 24 Nov 06:18:12 06:22:01 74° 102° (ESE) 06:25:49 145.980 - 146.000
DOVE 4 24 Nov 06:31:41 06:34:59 18° 295° (WNW) 06:38:10 437.250
FO-29 24 Nov 06:34:07 06:38:27 18° 58° (ENE) 06:42:59 435.910
KAITUO 1B 24 Nov 06:40:18 06:44:03 73° 283° (WNW) 06:47:49 145.475/437.950
XW-2D 24 Nov 07:04:31 07:07:37 24° 289° (WNW) 07:10:42 145.860 - 145.880
HO-68 24 Nov 07:12:17 07:19:25 65° 103° (ESE) 07:26:30 435.675
NUDT-PHONESAT 24 Nov 07:19:39 07:22:37 23° 289° (WNW) 07:25:35 437.300
XW-2B 24 Nov 07:20:00 07:22:29 17° 291° (WNW) 07:24:57 145.730 - 145.750
CUBEBUG 2 24 Nov 07:23:12 07:27:15 52° 100° (E) 07:31:17 437.445
CUTE 1.7 + AOD 2 24 Nov 07:28:05 07:32:21 71° 284° (WNW) 07:36:36 437.475
CUTE-I 24 Nov 07:30:24 07:35:04 31° 291° (WNW) 07:39:42 437.470
PCSat 24 Nov 07:32:08 07:34:37 13° 46° (NE) 07:37:05 145.827
FALCONSAT 3 24 Nov 07:47:33 07:50:42 27° 156° (SSE) 07:53:52 435.103
AAUSAT CUBESAT 2 24 Nov 07:48:23 07:52:26 45° 99° (E) 07:56:26 437.432
XW-2A 24 Nov 07:48:34 07:51:52 52° 100° (E) 07:55:10 145.665 - 145.685
YUBILEINY 24 Nov 07:51:23 07:54:47 13° 298° (WNW) 07:58:14 435.215
SEEDS 24 Nov 07:51:57 07:56:09 62° 284° (WNW) 08:00:20 437.485
STRAND 1 24 Nov 07:54:51 07:59:05 26° 264° (W) 08:03:21 437.568
ZACube-1 24 Nov 07:55:37 07:59:24 33° 98° (E) 08:03:12 437.345
UWE-3 24 Nov 08:12:48 08:16:56 71° 284° (WNW) 08:21:04 435.000/436.395/437.385
FO-29 24 Nov 08:15:43 08:22:21 83° 257° (WSW) 08:29:51 435.910
AO-73 24 Nov 08:44:13 08:48:21 69° 284° (WNW) 08:52:32 145.935
Oscar 11 24 Nov 08:56:41 09:01:01 77° 283° (WNW) 09:05:21 .
PRISM 24 Nov 09:00:13 09:02:40 15° 67° (ENE) 09:05:07 437.425
HO-68 24 Nov 09:01:15 09:06:30 22° 299° (WNW) 09:11:44 435.675
CUBEBUG 2 24 Nov 09:02:21 09:03:22 11° 294° (WNW) 09:04:23 437.445
UNISAT 6 24 Nov 09:02:35 09:07:02 54° 75° (ENE) 09:11:23 437.425
TIGRISAT 24 Nov 09:05:58 09:10:24 54° 75° (ENE) 09:14:46 435.000
PCSat 24 Nov 09:13:18 09:18:45 90° 245° (WSW) 09:24:09 145.827
DELFI C3 24 Nov 09:21:58 09:25:41 36° 98° (E) 09:29:20 145.870
AAUSAT CUBESAT 2 24 Nov 09:25:32 09:27:26 13° 293° (WNW) 09:29:19 437.432
FALCONSAT 3 24 Nov 09:25:53 09:29:32 73° 170° (S) 09:33:13 435.103
ZACube-1 24 Nov 09:32:44 09:35:24 17° 292° (WNW) 09:38:05 437.345
EO-88 24 Nov 09:34:50 09:37:46 22° 96° (E) 09:40:41 145.990 - 145.960
Max Valier Satellite 24 Nov 09:44:09 09:47:42 46° 100° (E) 09:51:14 145.860
FO-29 24 Nov 10:06:29 10:08:33 11° 275° (W) 10:10:40 435.910
QB50P2 24 Nov 10:24:52 10:27:33 17° 68° (ENE) 10:30:14 145.880/145.840
BEESAT 3 24 Nov 10:33:39 10:37:14 33° 55° (NE) 10:40:45 437.485
PRISM 24 Nov 10:33:46 10:37:35 36° 261° (W) 10:41:26 437.425
ESTCUBE 1 24 Nov 10:42:02 10:44:41 15° 93° (E) 10:47:20 437.505/2401.250
UNISAT 6 24 Nov 10:42:22 10:43:58 12° 268° (W) 10:45:35 437.425
TIGRISAT 24 Nov 10:45:39 10:47:19 12° 268° (W) 10:48:58 435.000
AIST 2D 24 Nov 10:46:39 10:50:07 87° 69° (ENE) 10:53:35 435.315
DELFI C3 24 Nov 10:57:54 11:00:03 14° 292° (WNW) 11:02:12 145.870
FALCONSAT 3 24 Nov 11:04:56 11:08:37 82° 186° (S) 11:12:18 435.103
DUCHIFAT 1 24 Nov 11:07:22 11:11:10 34° 72° (ENE) 11:14:59 145.980
EO-88 24 Nov 11:08:40 11:11:13 18° 290° (WNW) 11:13:47 145.990 - 145.960
EO-79 24 Nov 11:18:47 11:22:59 64° 76° (ENE) 11:27:11 145.935-145.965
NANOSAT C BR1 24 Nov 11:19:39 11:23:47 57° 75° (ENE) 11:27:56 145.865
LO-87 24 Nov 11:20:42 11:24:11 63° 100° (E) 11:27:40 145.935 - 145.965
AO-85 24 Nov 11:33:11 11:36:49 21° 51° (NE) 11:40:36 145.980
Oscar 19 24 Nov 11:34:39 11:35:53 11° 62° (ENE) 11:37:09 437.125/150
POLYITAN 1 24 Nov 11:35:05 11:39:20 80° 258° (WSW) 11:43:34 437.675
BUGSAT 1 24 Nov 11:46:19 11:49:35 22° 70° (ENE) 11:52:49 437.445
BEESAT 2 24 Nov 11:53:26 11:57:27 73° 60° (ENE) 12:01:23 435.950
QB50P2 24 Nov 11:59:08 12:03:01 35° 262° (W) 12:06:56 145.880/145.840
O/OREOS (USA 219) 24 Nov 12:06:23 12:10:26 31° 103° (ESE) 12:14:30 437.305
BEESAT 3 24 Nov 12:11:59 12:14:28 16° 250° (WSW) 12:16:54 437.485
ESTCUBE 1 24 Nov 12:17:21 12:21:38 42° 287° (WNW) 12:25:54 437.505/2401.250
VELOX 1 24 Nov 12:22:05 12:25:55 28° 97° (E) 12:29:43 145.980
Gurwin Techsat 1B 24 Nov 12:25:05 12:29:26 26° 68° (ENE) 12:33:47 435.225
FALCONSAT 3 24 Nov 12:44:08 12:47:33 36° 201° (SSW) 12:50:58 435.103
DUCHIFAT 1 24 Nov 12:44:15 12:46:53 16° 266° (W) 12:49:32 145.980
SPROUT 24 Nov 12:51:07 12:55:21 75° 284° (WNW) 12:59:34 437.525
DX 1 24 Nov 12:57:18 12:59:35 14° 93° (E) 13:01:52 434.975-435.025
AO-91 24 Nov 13:01:00 13:06:22 80° 77° (ENE) 13:11:46 145.960
Oscar 19 24 Nov 13:09:22 13:14:28 81° 257° (WSW) 13:19:37 437.125/150
AO-85 24 Nov 13:12:45 13:17:23 46° 245° (WSW) 13:22:18 145.980
BUGSAT 1 24 Nov 13:21:18 13:24:46 25° 263° (W) 13:28:13 437.445
NO-84 24 Nov 13:24:13 13:27:32 49° 129° (SE) 13:31:10 435.350 FM
UKube-1 24 Nov 13:30:44 13:33:59 21° 96° (E) 13:37:13 .
50 SAT 24 Nov 13:37:07 13:40:13 46° 100° (E) 13:43:17 437.505
JUGNU 24 Nov 13:37:48 13:40:52 14° 172° (S) 13:43:55 437.505
O/OREOS (USA 219) 24 Nov 13:46:16 13:49:50 22° 299° (WNW) 13:53:26 437.305
AO-7 24 Nov 13:58:07 14:05:39 41° 63° (ENE) 14:13:12 .
VELOX 1 24 Nov 13:58:43 14:02:10 23° 291° (WNW) 14:05:37 145.980
Gurwin Techsat 1B 24 Nov 14:04:24 14:09:10 34° 262° (W) 14:13:59 435.225
M-CUBED/EXP-1 PRIME 24 Nov 14:06:18 14:09:51 83° 75° (ENE) 14:13:44 437.505
ITUPSAT 1 24 Nov 14:27:37 14:28:58 11° 92° (E) 14:30:18 437.325
DX 1 24 Nov 14:31:47 14:35:56 43° 287° (WNW) 14:40:03 434.975-435.025
AO-91 24 Nov 14:41:42 14:43:14 11° 271° (W) 14:44:48 145.960
NO-84 24 Nov 15:02:30 15:05:07 18° 327° (NNW) 15:07:52 435.350 FM
UKube-1 24 Nov 15:06:14 15:09:58 29° 290° (WNW) 15:13:39 .
ITAMSAT 1 24 Nov 15:09:43 15:14:57 81° 75° (ENE) 15:20:12 435.822/435.867
JUGNU 24 Nov 15:25:35 15:29:06 16° 183° (S) 15:32:34 437.505
SRMSAT 24 Nov 15:31:05 15:32:15 11° 166° (SSE) 15:33:27 437.500
MOZHAYETS 4 24 Nov 15:39:13 15:43:48 76° 284° (WNW) 15:48:22
BEESAT 24 Nov 15:50:04 15:54:51 83° 283° (WNW) 15:59:35 436.000
AO-7 24 Nov 15:50:38 15:58:17 41° 260° (W) 16:06:00 .
DOVE 4 24 Nov 15:54:36 15:59:12 35° 71° (ENE) 16:03:56 437.250
CUBESAT XI-V 24 Nov 16:00:51 16:05:16 39° 98° (E) 16:09:39 437.345
YUBILEINY 24 Nov 16:01:40 16:10:09 48° 77° (ENE) 16:18:34 435.215
ITUPSAT 1 24 Nov 16:02:26 16:07:08 63° 286° (WNW) 16:11:49 437.325
RS-15 24 Nov 16:12:14 16:20:10 20° 99° (E) 16:28:05 29.354- 29.394
XW-2C 24 Nov 16:49:44 16:52:26 19° 70° (ENE) 16:55:09 145.795 - 145.815
LilacSat-2 24 Nov 16:56:07 16:59:13 25° 71° (ENE) 17:02:21 437.200
XW-2F 24 Nov 16:56:36 16:59:28 22° 71° (ENE) 17:02:21 145.980 - 146.000
KKS-1 24 Nov 17:03:45 17:07:54 38° 99° (E) 17:12:01 437.445
CUTE-I 24 Nov 17:09:21 17:14:12 36° 70° (ENE) 17:19:04 437.470
JUGNU 24 Nov 17:15:27 17:17:18 11° 192° (SSW) 17:19:09 437.505
SRMSAT 24 Nov 17:17:08 17:20:37 16° 176° (S) 17:24:06 437.500
KAITUO 1B 24 Nov 17:17:18 17:20:32 30° 73° (ENE) 17:23:47 145.475/437.950
STARS 24 Nov 17:17:41 17:20:55 20° 95° (E) 17:24:07 437.465
DOVE 4 24 Nov 17:32:48 17:36:52 24° 266° (W) 17:41:04 437.250
HO-68 24 Nov 17:37:59 17:44:23 36° 65° (ENE) 17:50:46 435.675
CUBESAT XI-V 24 Nov 17:39:04 17:42:18 19° 293° (WNW) 17:45:31 437.345
XW-2D 24 Nov 17:41:45 17:45:28 79° 257° (WSW) 17:49:14 145.860 - 145.880
NUDT-PHONESAT 24 Nov 17:54:38 17:58:15 84° 258° (WSW) 18:01:56 437.300
XW-2B 24 Nov 17:56:51 18:00:28 50° 260° (W) 18:04:08 145.730 - 145.750
YUBILEINY 24 Nov 17:59:01 18:06:33 33° 275° (W) 18:14:05 435.215
CUTE 1.7 + AOD 2 24 Nov 18:17:28 18:21:32 52° 75° (ENE) 18:25:38 437.475
CUBEBUG 2 24 Nov 18:18:09 18:22:11 32° 72° (ENE) 18:26:07 437.445
RS-15 24 Nov 18:18:37 18:30:56 88° 119° (ESE) 18:43:17 29.354- 29.394
XW-2A 24 Nov 18:19:05 18:19:50 11° 68° (ENE) 18:20:34 145.665 - 145.685
XW-2C 24 Nov 18:23:30 18:26:27 22° 264° (W) 18:29:25 145.795 - 145.815
STRAND 1 24 Nov 18:30:19 18:32:41 13° 92° (E) 18:35:03 437.568
XW-2F 24 Nov 18:30:44 18:33:27 19° 265° (W) 18:36:12 145.980 - 146.000
LilacSat-2 24 Nov 18:30:57 18:33:27 17° 266° (W) 18:35:58 437.200
AAUSAT CUBESAT 2 24 Nov 18:36:05 18:39:09 21° 70° (ENE) 18:42:14 437.432
SEEDS 24 Nov 18:40:12 18:44:16 58° 76° (ENE) 18:48:23 437.485
ISS 24 Nov 18:40:50 18:43:44 30° 132° (SE) 18:46:39 437.550
KKS-1 24 Nov 18:41:12 18:44:07 17° 293° (WNW) 18:47:01 437.445
ZACube-1 24 Nov 18:49:11 18:52:13 19° 69° (ENE) 18:55:13 437.345
CUTE-I 24 Nov 18:49:55 18:54:15 25° 264° (W) 18:58:37 437.470
KAITUO 1B 24 Nov 18:52:39 18:54:33 14° 267° (W) 18:56:28 145.475/437.950
STARS 24 Nov 18:53:24 18:57:13 30° 290° (WNW) 19:01:01 437.465
SRMSAT 24 Nov 19:05:44 19:09:01 15° 186° (S) 19:12:19 437.500
UWE-3 24 Nov 19:06:18 19:10:41 62° 75° (ENE) 19:14:57 435.000/436.395/437.385
nSIGHT-1 24 Nov 19:19:53 19:23:05 68° 319° (NW) 19:26:17 .
HO-68 24 Nov 19:25:19 19:31:56 39° 261° (W) 19:38:37 435.675
FO-29 24 Nov 19:30:21 19:35:37 20° 89° (E) 19:40:36 435.910
AO-73 24 Nov 19:36:21 19:40:34 60° 76° (ENE) 19:44:43 145.935
Oscar 11 24 Nov 19:48:14 19:52:24 53° 75° (ENE) 19:56:36 .
XW-2A 24 Nov 19:49:12 19:52:11 31° 262° (W) 19:55:10 145.665 - 145.685
CUBEBUG 2 24 Nov 19:55:25 19:58:47 20° 265° (W) 20:02:05 437.445
CUTE 1.7 + AOD 2 24 Nov 19:57:02 19:57:38 10° 269° (W) 19:58:14 437.475
NO-84 24 Nov 19:59:43 20:02:19 16° 31° (NNE) 20:04:55 435.350 FM
DELFI C3 24 Nov 20:05:28 20:07:40 15° 68° (ENE) 20:09:52 145.870
STRAND 1 24 Nov 20:07:11 20:12:13 60° 286° (WNW) 20:17:12 437.568
AAUSAT CUBESAT 2 24 Nov 20:10:56 20:14:24 26° 264° (W) 20:17:55 437.432
ISS 24 Nov 20:17:30 20:20:13 24° 327° (NNW) 20:22:57 437.550
Max Valier Satellite 24 Nov 20:21:27 20:23:20 14° 69° (ENE) 20:25:12 145.860
ZACube-1 24 Nov 20:24:27 20:28:16 30° 263° (W) 20:32:01 437.345
SO-50 24 Nov 20:28:10 20:32:30 53° 116° (ESE) 20:36:52 436.795
RS-15 24 Nov 20:34:47 20:45:06 30° 321° (NW) 20:55:23 29.354- 29.394
UNISAT 6 24 Nov 20:58:45 21:00:45 13° 93° (E) 21:02:45 437.425
nSIGHT-1 24 Nov 20:58:52 20:59:49 11° 337° (NNW) 21:00:46 .
TIGRISAT 24 Nov 21:02:02 21:03:57 13° 92° (E) 21:05:53 435.000
FO-29 24 Nov 21:13:32 21:21:17 72° 287° (WNW) 21:28:22 435.910
Oscar 11 24 Nov 21:27:55 21:28:49 11° 269° (W) 21:29:43 .
NO-84 24 Nov 21:35:54 21:40:11 89° 51° (NE) 21:44:25 435.350 FM
DELFI C3 24 Nov 21:38:25 21:42:03 35° 262° (W) 21:45:44 145.870
ESTCUBE 1 24 Nov 21:41:01 21:41:39 10° 64° (ENE) 21:42:17 437.505/2401.250
EO-88 24 Nov 21:41:56 21:45:31 68° 259° (W) 21:49:08 145.990 - 145.960
Max Valier Satellite 24 Nov 21:53:36 21:56:50 30° 263° (W) 22:00:06 145.860
LO-87 24 Nov 21:54:35 21:56:53 16° 70° (ENE) 21:59:11 145.935 - 145.965
SO-50 24 Nov 22:10:28 22:13:15 16° 313° (NW) 22:16:05 436.795
PCSat 24 Nov 22:10:52 22:14:18 17° 104° (ESE) 22:17:45 145.827
PRISM 24 Nov 22:17:33 22:21:20 34° 98° (E) 22:25:05 437.425
O/OREOS (USA 219) 24 Nov 22:18:57 22:23:09 37° 65° (ENE) 22:27:20 437.305
UNISAT 6 24 Nov 22:33:37 22:37:39 42° 287° (WNW) 22:41:40 437.425
TIGRISAT 24 Nov 22:36:48 22:40:50 43° 287° (WNW) 22:44:51 435.000
RS-15 24 Nov 22:57:45 23:03:39 14° 356° (N) 23:09:27 29.354- 29.394
FO-29 24 Nov 23:01:36 23:04:47 13° 305° (NW) 23:07:56 435.910
EO-79 24 Nov 23:08:02 23:09:51 12° 93° (E) 23:11:38 145.935-145.965
NANOSAT C BR1 24 Nov 23:09:07 23:10:12 11° 92° (E) 23:11:18 145.865
ESTCUBE 1 24 Nov 23:13:23 23:17:49 67° 259° (W) 23:22:18 437.505/2401.250
VELOX 1 24 Nov 23:17:02 23:20:05 18° 67° (ENE) 23:23:08 145.980
POLYITAN 1 24 Nov 23:23:25 23:26:29 20° 95° (E) 23:29:32 437.675
LO-87 24 Nov 23:27:04 23:30:04 24° 263° (W) 23:33:03 145.935 - 145.965
SPROUT 24 Nov 23:41:01 23:45:11 54° 74° (ENE) 23:49:22 437.525
QB50P2 24 Nov 23:46:20 23:50:20 42° 99° (E) 23:54:18 145.880/145.840
AIST 2D 24 Nov 23:47:04 23:50:29 48° 285° (WNW) 23:53:54 435.315
PCSat 24 Nov 23:51:55 23:57:11 54° 300° (WNW) 00:02:30 145.827
PRISM 24 Nov 23:53:40 23:56:17 17° 293° (WNW) 23:58:54 437.425
O/OREOS (USA 219) 24 Nov 23:59:19 00:02:13 17° 260° (W) 00:05:05 437.305
BEESAT 3 25 Nov 00:22:51 00:23:46 11° 107° (ESE) 00:24:42 437.485
UKube-1 25 Nov 00:23:36 00:25:35 13° 65° (ENE) 00:27:34 .
DUCHIFAT 1 25 Nov 00:28:58 00:33:08 85° 282° (WNW) 00:37:17 145.980
EO-79 25 Nov 00:41:48 00:45:47 43° 286° (WNW) 00:49:44 145.935-145.965
NANOSAT C BR1 25 Nov 00:42:07 00:46:09 49° 286° (WNW) 00:50:10 145.865
Gurwin Techsat 1B 25 Nov 00:45:44 00:47:47 12° 91° (E) 00:49:50 435.225
VELOX 1 25 Nov 00:52:09 00:56:13 35° 262° (W) 01:00:18 145.980
AO-91 25 Nov 00:56:16 00:59:06 17° 92° (E) 01:01:43 145.960
POLYITAN 1 25 Nov 00:58:39 01:02:13 28° 289° (WNW) 01:05:48 437.675
BUGSAT 1 25 Nov 01:04:55 01:08:50 53° 100° (E) 01:12:45 437.445
ISS 25 Nov 01:11:23 01:13:23 15° 27° (NNE) 01:15:23 437.550
RS-15 25 Nov 01:13:23 01:22:40 25° 33° (NNE) 01:31:33 29.354- 29.394
SPROUT 25 Nov 01:20:30 01:21:20 10° 268° (W) 01:22:10 437.525
QB50P2 25 Nov 01:23:33 01:25:42 14° 293° (WNW) 01:27:51 145.880/145.840
DX 1 25 Nov 01:23:44 01:28:05 74° 257° (WSW) 01:32:29 434.975-435.025
Oscar 19 25 Nov 01:23:51 01:28:47 44° 99° (E) 01:33:43 437.125/150
ITUPSAT 1 25 Nov 01:32:38 01:33:33 10° 62° (ENE) 01:34:28 437.325
50 SAT 25 Nov 01:32:44 01:35:44 36° 261° (W) 01:38:45 437.505
BEESAT 2 25 Nov 01:42:00 01:45:14 24° 112° (ESE) 01:48:31 435.950
nSIGHT-1 25 Nov 01:49:08 01:52:07 35° 36° (NE) 01:55:03 .
BEESAT 3 25 Nov 01:56:55 02:00:48 52° 302° (WNW) 02:04:43 437.485
UKube-1 25 Nov 01:56:57 02:01:08 49° 260° (W) 02:05:21 .
AO-7 25 Nov 02:05:40 02:09:08 13° 91° (E) 02:12:34 .
Gurwin Techsat 1B 25 Nov 02:22:51 02:28:09 69° 286° (WNW) 02:33:25 435.225
AO-91 25 Nov 02:31:55 02:35:39 29° 290° (WNW) 02:39:03 145.960
MOZHAYETS 4 25 Nov 02:37:49 02:42:21 73° 76° (ENE) 02:46:54
BUGSAT 1 25 Nov 02:43:17 02:43:41 10° 295° (WNW) 02:44:04 437.445
ISS 25 Nov 02:46:55 02:50:09 67° 224° (SW) 02:53:22 437.550
BEESAT 25 Nov 02:53:15 02:58:00 82° 76° (ENE) 03:02:47 436.000
CUBESAT XI-V 25 Nov 03:01:31 03:05:22 27° 70° (ENE) 03:09:16 437.345
Oscar 19 25 Nov 03:04:05 03:07:44 20° 294° (WNW) 03:11:23 437.125/150
ITUPSAT 1 25 Nov 03:05:55 03:10:42 75° 258° (WSW) 03:15:29 437.325
BEESAT 2 25 Nov 03:19:31 03:22:51 25° 307° (NW) 03:26:13 435.950
M-CUBED/EXP-1 PRIME 25 Nov 03:20:30 03:25:09 84° 288° (WNW) 03:29:47 437.505
AO-85 25 Nov 03:24:47 03:28:36 63° 301° (WNW) 03:32:35 145.980
RS-15 25 Nov 03:25:30 03:37:21 79° 60° (ENE) 03:48:32 29.354- 29.394
ITAMSAT 1 25 Nov 03:25:49 03:30:33 35° 98° (E) 03:35:15 435.822/435.867
nSIGHT-1 25 Nov 03:25:55 03:28:07 17° 231° (SW) 03:30:19 .
AO-7 25 Nov 03:54:29 04:02:53 81° 107° (ESE) 04:11:16 .
DOVE 4 25 Nov 03:58:52 04:00:35 12° 89° (E) 04:02:16 437.250
KKS-1 25 Nov 03:59:08 04:02:48 25° 69° (ENE) 04:06:29 437.445
STARS 25 Nov 04:12:30 04:14:41 14° 65° (ENE) 04:16:52 437.465
CUBESAT XI-V 25 Nov 04:38:56 04:42:39 24° 265° (W) 04:46:24 437.345
YUBILEINY 25 Nov 04:58:28 05:07:00 61° 91° (E) 05:15:37 435.215
SO-50 25 Nov 05:02:15 05:06:02 24° 51° (NE) 05:09:50 436.795
ITAMSAT 1 25 Nov 05:05:39 05:09:47 25° 293° (WNW) 05:13:55 435.822/435.867
XW-2D 25 Nov 05:18:25 05:20:12 13° 93° (E) 05:22:00 145.860 - 145.880
NUDT-PHONESAT 25 Nov 05:29:36 05:30:31 11° 92° (E) 05:31:27 437.300
CUTE-I 25 Nov 05:30:07 05:33:40 18° 93° (E) 05:37:11 437.470
XW-2B 25 Nov 05:32:33 05:35:19 19° 95° (E) 05:38:04 145.730 - 145.750
KKS-1 25 Nov 05:35:31 05:39:13 25° 264° (W) 05:42:57 437.445
